Lansing, MI

5:12 PM EDT on April 26, 2017 (GMT -0400)
Capital City

Weather History for KLAN - December, 2012

Change the Weather History Date:

Monday, December 24, 2012

  Actual Average Record
Temperature  
Mean Temperature 23 °F 26 °F  
Max Temperature 28 °F 32 °F 62 °F (1893)
Min Temperature 18 °F 20 °F -13 °F (1897)
Degree Days  
Heating Degree Days 42 39  
Month to date heating degree days 683 858  
Since 1 July heating degree days 2090 2272  
Cooling Degree Days 0 0  
Month to date cooling degree days 0 0  
Year to date cooling degree days 940 625  
Moisture  
Dew Point 19 °F    
Average Humidity 79    
Maximum Humidity 84    
Minimum Humidity 74    
Precipitation  
Precipitation 0.03 in 0.05 in 1.40 in (1979)
Month to date precipitation 1.88 1.47  
Year to date precipitation 28.31 31.37  
Snow  
Snow 0.60 in 0.40 in 7.00 in (1884)
Month to date snowfall 3.1 9.7  
Since 1 July snowfall 3.6 13.5  
Snow Depth 2.00 in    
Sea Level Pressure  
Sea Level Pressure 29.96 in    
Wind  
Wind Speed 6 mph (NNE)    
Max Wind Speed 14 mph    
Max Gust Speed 17 mph    
Visibility 8 miles    
Events Snow    
T = Trace of Precipitation, MM = Missing Value Source: NWS Daily Summary

Daily Weather History Graph

Daily Weather History Graph

Search for Another Location

Airport or City:

Trip Planner

Search our weather history database for the weather conditions in past years. The results will help you decide how hot, cold, wet, or windy it might be!

Date:

Astronomy

Dec. 24, 2012 Rise Set
Actual Time 8:07 AM EST 5:09 PM EST
Civil Twilight 7:34 AM EST 5:41 PM EST
Nautical Twilight 6:59 AM EST 6:17 PM EST
Astronomical Twilight 6:24 AM EST 6:51 PM EST
Moon 2:37 PM EST (12/24) 4:42 AM EST (12/24)
Length of Visible Light 10h 06m
Length of Day
9h 02m
Waxing Gibbous, 88% of the Moon is Illuminated
Dec 24
Waxing Gibbous
Dec 28
Full
Jan 4
Last Quarter
Jan 11
New
Jan 18
First Quarter

Hourly Weather History & Observations

Time (EST) Temp. Windchill Dew Point Humidity Pressure Visibility Wind Dir Wind Speed Gust Speed Precip Events Conditions
12:53 AM 19.0 °F 11.1 °F 14.0 °F 81% 30.03 in 10.0 mi NE 5.8 mph - N/A   Scattered Clouds
1:53 AM 21.0 °F - 15.1 °F 78% 30.04 in 10.0 mi Calm Calm - N/A   Scattered Clouds
2:53 AM 19.9 °F 14.9 °F 14.0 °F 78% 30.05 in 10.0 mi NNE 3.5 mph - N/A   Scattered Clouds
3:53 AM 19.9 °F 13.4 °F 14.0 °F 78% 30.03 in 10.0 mi ENE 4.6 mph - N/A   Mostly Cloudy
4:53 AM 19.9 °F 11.1 °F 15.1 °F 81% 30.00 in 10.0 mi ENE 6.9 mph - N/A   Mostly Cloudy
5:53 AM 19.9 °F 11.1 °F 16.0 °F 85% 29.99 in 10.0 mi ENE 6.9 mph - N/A   Mostly Cloudy
6:53 AM 21.0 °F 13.4 °F 16.0 °F 81% 29.98 in 10.0 mi East 5.8 mph - N/A   Mostly Cloudy
7:22 AM 21.2 °F 14.9 °F 15.8 °F 80% 29.95 in 10.0 mi East 4.6 mph - N/A   Mostly Cloudy
7:53 AM 21.9 °F 14.5 °F 17.1 °F 82% 29.99 in 10.0 mi ENE 5.8 mph - N/A   Overcast
8:53 AM 23.0 °F 13.9 °F 17.1 °F 78% 29.98 in 10.0 mi ENE 8.1 mph - N/A   Overcast
9:53 AM 24.1 °F 17.0 °F 18.0 °F 77% 29.98 in 10.0 mi East 5.8 mph - N/A   Overcast
10:53 AM 26.1 °F 16.2 °F 19.0 °F 75% 29.96 in 10.0 mi ENE 10.4 mph - N/A   Overcast
11:53 AM 27.0 °F 23.0 °F 19.0 °F 72% 29.98 in 10.0 mi NNW 3.5 mph - N/A   Overcast
12:53 PM 27.0 °F 16.7 °F 21.0 °F 78% 29.90 in 10.0 mi ENE 11.5 mph - N/A   Overcast
1:53 PM 28.0 °F 18.6 °F 21.0 °F 75% 29.89 in 10.0 mi NE 10.4 mph - N/A   Overcast
2:53 PM 28.0 °F 18.1 °F 21.0 °F 75% 29.89 in 3.0 mi NE 11.5 mph - 0.00 in Snow Light Snow
3:04 PM 28.4 °F 19.1 °F 21.2 °F 74% 29.85 in 2.0 mi NE 10.4 mph - 0.00 in Snow Light Snow
3:25 PM 26.6 °F 19.1 °F 21.2 °F 80% 29.85 in 1.5 mi NE 6.9 mph - 0.00 in Snow Light Snow
3:34 PM 26.6 °F 16.8 °F 21.2 °F 80% 29.85 in 1.0 mi NNE 10.4 mph - 0.00 in Snow Light Snow
3:42 PM 26.6 °F 16.8 °F 21.2 °F 80% 29.85 in 0.8 mi NNE 10.4 mph - 0.00 in Snow Light Snow
3:53 PM 27.0 °F 18.7 °F 23.0 °F 85% 29.90 in 0.8 mi NNE 8.1 mph - 0.00 in Snow Light Snow
4:30 PM 26.6 °F 17.5 °F 23.0 °F 86% 29.86 in 1.0 mi NNE 9.2 mph - 0.01 in Snow Light Snow
4:53 PM 27.0 °F 19.5 °F 21.9 °F 81% 29.91 in 1.5 mi NNE 6.9 mph - 0.02 in Snow Light Snow
5:28 PM 26.6 °F 18.2 °F 21.2 °F 80% 29.88 in 6.0 mi NNE 8.1 mph - 0.00 in   Overcast
5:53 PM 26.1 °F 19.4 °F 21.9 °F 84% 29.94 in 3.0 mi NNE 5.8 mph - 0.00 in Snow Light Snow
6:22 PM 26.6 °F 21.2 °F 21.2 °F 80% 29.90 in 5.0 mi North 4.6 mph - 0.00 in Snow Light Snow
6:53 PM 26.1 °F 19.4 °F 21.9 °F 84% 29.96 in 7.0 mi North 5.8 mph - 0.00 in   Overcast
7:17 PM 26.6 °F 20.0 °F 21.2 °F 80% 29.93 in 8.0 mi North 5.8 mph - N/A   Overcast
7:53 PM 26.1 °F 19.4 °F 21.9 °F 84% 29.99 in 9.0 mi North 5.8 mph - N/A   Overcast
8:29 PM 26.6 °F 20.0 °F 21.2 °F 80% 29.96 in 10.0 mi North 5.8 mph - N/A   Overcast
8:53 PM 26.1 °F 19.4 °F 21.9 °F 84% 30.01 in 10.0 mi North 5.8 mph - N/A   Overcast
9:53 PM 27.0 °F 21.6 °F 21.9 °F 81% 30.02 in 10.0 mi North 4.6 mph - N/A   Overcast
10:53 PM 26.1 °F 19.4 °F 21.0 °F 81% 30.03 in 10.0 mi North 5.8 mph - N/A   Overcast
11:25 PM 26.6 °F 21.2 °F 21.2 °F 80% 30.00 in 10.0 mi NNW 4.6 mph - N/A   Overcast
11:53 PM 26.1 °F 19.4 °F 21.0 °F 81% 30.05 in 10.0 mi NNW 5.8 mph - N/A   Overcast